Location: Newark
(49.8348°N, 24.0280°E)
Time: 20:59:58
(UTC+00:00)

Explorer 7 - Pass Details

Date: 26 January 2020
Orbit: 485 x 679 km, 50.3° (Epoch: 26 February)

Event Time Altitude Azimuth Distance (km) Brightness Sun altitude
Rises 00:19:04 0° 277° (W) 2,550 - -52.9°
Reaches altitude 10° 00:21:13 10° 278° (W) 1,673 - -52.6°
Maximum altitude 00:24:59 88° 7° (N) 500 - -52.2°
Drops below altitude 10° 00:28:52 10° 98° (E) 1,722 - -51.8°
Sets 00:31:07 0° 99° (E) 2,633 - -51.5°
